Погода в Кулу

Турция     39°05′20″N   33°04′51″E
темп.,
°C
ветер,
м/с
пор.,
м/с
влажн.,
%
обл.,
%
осадки,
мм/ч
давл.,
гПа
погр.,
м
2 декабря, чт
чт200:00+1з22670 0.0 101929
03:000з11790 0.0 102011
06:000юз22740 0.0 102111
09:00+1ююз23650 0.0 1022107
12:00+5ю45470 0.0 1021621
15:00+7ююв44400 0.0 1019679
18:00+5ю22490 0.0 101914
21:00+3ю11520 0.0 102012
3 декабря, пт
пт300:00+2ю11530 0.0 102010
03:00+2ю11520 0.0 102010
06:00+2ю22491 0.0 102010
09:00+4ююз22535 0.0 102226
12:00+8ю34372 0.0 1020372
15:00+10ю34310 0.0 1019499
18:00+8ю2337100 0.0 101913
21:00+7ююз3343100 0.0 102014
4 декабря, сб
сб400:00+6ююз3344100 0.0 102113
03:00+5ю2252100 0.0 102010
06:00+5ю2263100 0.0 102011
09:00+6ю1265100 0.0 102044
12:00+9ююв345813 0.0 1018335
15:00+11ю4552100 0.0 1014525
18:00+9ю6872100 0.2 1015278
21:00+8ююв4787100 2.9 1015264
5 декабря, вс
вс500:00+8ююв2683100 0.3 1015228
03:00+7ююз2281100 0.3 101428
06:00+7юв117898 0.0 101335
09:00+8св1180100 0.0 101317
12:00+10вюв117187 0.1 1013291
15:00+11юв226815 0.3 1012534
18:00+9всв11715 0.0 101310
21:00+8ююв11674 0.0 101510
6 декабря, пн
пн600:00+7ю22610 0.0 101610
03:00+6ю22600 0.0 101710
06:00+5ю22600 0.0 101811
09:00+6ю22610 0.0 101915
12:00+10ю35490 0.0 1018378
15:00+12ююз45410 0.0 1017755
18:00+10ююв22490 0.0 101811
21:00+8юз12540 0.0 101910